When you browse on this site, cookies collect data to enhance your experience and personalize the content and advertising you see.
Visit our Privacy Policy to learn more. By continuing to use the site, you agree to this use of cookies and data.
  • In Portugal
  • List of Countries
  • For 7 days
  • Water Temperature
  • Weather Map
  • Weather Widgets
  • user-avatar
    Login

    Hourly Weather Kandahar

    Today, 27 February, Thursday

    Time Temperature Precipitation Wind Pressure Humidity
    00:00 +18°C° 0 mm 3 mps 674 mmHg 39%
    01:00 +17°C° 0 mm 3 mps 673 mmHg 41%
    02:00 +17°C° 0 mm 2 mps 673 mmHg 42%
    03:00 +17°C° 0 mm 2 mps 673 mmHg 43%
    04:00 +16°C° 0 mm 2 mps 672 mmHg 45%
    05:00 +16°C° 0 mm 2 mps 673 mmHg 45%
    06:00 +16°C° 0 mm 2 mps 673 mmHg 46%
    07:00 +16°C° 0 mm 2 mps 674 mmHg 47%
    08:00 +18°C° 0 mm 2 mps 674 mmHg 42%
    09:00 +20°C° 0 mm 2 mps 674 mmHg 37%
    10:00 +21°C° 0 mm 3 mps 675 mmHg 32%
    11:00 +24°C° 0 mm 3 mps 674 mmHg 30%
    12:00 +25°C° 0 mm 4 mps 674 mmHg 27%
    13:00 +26°C° 0 mm 5 mps 674 mmHg 25%
    14:00 +26°C° 0 mm 6 mps 673 mmHg 27%
    15:00 +24°C° 0 mm 7 mps 673 mmHg 28%
    16:00 +24°C° 0 mm 7 mps 672 mmHg 30%
    17:00 +22°C° 0 mm 7 mps 672 mmHg 36%
    18:00 +20°C° 0 mm 7 mps 673 mmHg 42%
    19:00 +18°C° 0 mm 7 mps 673 mmHg 49%
    20:00 +17°C° 0 mm 6 mps 673 mmHg 50%
    21:00 +16°C° 0 mm 5 mps 673 mmHg 52%
    22:00 +16°C° 0 mm 3 mps 673 mmHg 53%
    23:00 +14°C° 0 mm 3 mps 673 mmHg 55%

    Tomorrow, 28 February, Friday

    Time Temperature Precipitation Wind Pressure Humidity
    00:00 +13°C° 0 mm 3 mps 673 mmHg 57%
    01:00 +13°C° 0 mm 3 mps 673 mmHg 58%
    02:00 +12°C° 0 mm 3 mps 673 mmHg 60%
    03:00 +11°C° 0 mm 3 mps 673 mmHg 63%
    04:00 +11°C° 0 mm 3 mps 672 mmHg 65%
    05:00 +10°C° 0 mm 2 mps 673 mmHg 66%
    06:00 +10°C° 0 mm 2 mps 673 mmHg 67%
    07:00 +10°C° 0 mm 2 mps 674 mmHg 67%
    08:00 +10°C° 0 mm 2 mps 674 mmHg 62%
    09:00 +12°C° 0 mm 2 mps 674 mmHg 57%
    10:00 +13°C° 0 mm 2 mps 675 mmHg 51%
    11:00 +14°C° 0 mm 2 mps 674 mmHg 48%
    12:00 +14°C° 0 mm 2 mps 674 mmHg 44%
    13:00 +15°C° 0 mm 2 mps 674 mmHg 41%
    14:00 +15°C° 0 mm 2 mps 673 mmHg 40%
    15:00 +16°C° 0 mm 2 mps 673 mmHg 39%
    16:00 +16°C° 0 mm 2 mps 673 mmHg 37%
    17:00 +15°C° 0 mm 2 mps 673 mmHg 40%
    18:00 +15°C° 0 mm 2 mps 673 mmHg 43%
    19:00 +14°C° 0 mm 2 mps 674 mmHg 45%
    20:00 +14°C° 0 mm 2 mps 674 mmHg 48%
    21:00 +13°C° 0 mm 1 mps 674 mmHg 50%
    22:00 +13°C° 0 mm 1 mps 674 mmHg 52%
    23:00 +12°C° 0 mm 1 mps 674 mmHg 54%

    Day after tomorrow, 29 February, Saturday

    Time Temperature Precipitation Wind Pressure Humidity
    00:00 +11°C° 0 mm 0 mps 673 mmHg 55%
    01:00 +11°C° 0 mm 0 mps 673 mmHg 57%
    02:00 +10°C° 0 mm 0 mps 673 mmHg 58%
    03:00 +10°C° 0 mm 0 mps 672 mmHg 59%
    04:00 +9°C° 0 mm 0 mps 672 mmHg 61%
    05:00 +10°C° 0 mm 0 mps 672 mmHg 60%
    06:00 +10°C° 0 mm 0 mps 673 mmHg 60%
    07:00 +10°C° 0 mm 0 mps 673 mmHg 60%
    08:00 +11°C° 0 mm 0 mps 673 mmHg 53%
    09:00 +13°C° 0 mm 0 mps 674 mmHg 47%
    10:00 +15°C° 0 mm 1 mps 674 mmHg 41%
    11:00 +16°C° 0 mm 1 mps 674 mmHg 38%
    12:00 +18°C° 0 mm 1 mps 673 mmHg 35%
    13:00 +19°C° 0 mm 1 mps 673 mmHg 32%
    14:00 +19°C° 0 mm 1 mps 673 mmHg 31%
    15:00 +17°C° 0 mm 0 mps 673 mmHg 30%
    16:00 +18°C° 0 mm 0 mps 672 mmHg 28%
    17:00 +19°C° 0 mm 1 mps 673 mmHg 32%
    18:00 +18°C° 0 mm 1 mps 673 mmHg 36%
    19:00 +16°C° 0 mm 1 mps 673 mmHg 40%
    20:00 +16°C° 0 mm 1 mps 673 mmHg 42%
    21:00 +14°C° 0 mm 0 mps 673 mmHg 45%
    22:00 +14°C° 0 mm 0 mps 673 mmHg 47%
    23:00 +13°C° 0 mm 0 mps 673 mmHg 47%

    1 March, Sunday

    Time Temperature Precipitation Wind Pressure Humidity
    00:00 +14°C° 0 mm 1 mps 673 mmHg 47%
    01:00 +13°C° 0 mm 1 mps 673 mmHg 47%
    02:00 +13°C° 0 mm 1 mps 673 mmHg 47%
    03:00 +13°C° 0 mm 1 mps 672 mmHg 47%
    04:00 +12°C° 0 mm 2 mps 672 mmHg 47%
    05:00 +13°C° 0 mm 2 mps 673 mmHg 46%
    06:00 +13°C° 0 mm 2 mps 673 mmHg 45%
    07:00 +12°C° 0 mm 3 mps 673 mmHg 45%
    08:00 +13°C° 0 mm 3 mps 674 mmHg 40%
    09:00 +15°C° 0 mm 4 mps 675 mmHg 35%
    10:00 +18°C° 0 mm 4 mps 675 mmHg 30%
    11:00 +19°C° 0 mm 3 mps 675 mmHg 28%
    12:00 +20°C° 0 mm 3 mps 675 mmHg 26%
    13:00 +21°C° 0 mm 2 mps 674 mmHg 24%
    14:00 +21°C° 0 mm 2 mps 674 mmHg 23%
    15:00 +22°C° 0 mm 1 mps 674 mmHg 22%
    16:00 +23°C° 0 mm 1 mps 673 mmHg 21%
    17:00 +22°C° 0 mm 1 mps 673 mmHg 25%
    18:00 +21°C° 0 mm 1 mps 673 mmHg 29%
    19:00 +20°C° 0 mm 1 mps 673 mmHg 33%
    20:00 +18°C° 0 mm 2 mps 673 mmHg 34%
    21:00 +17°C° 0 mm 2 mps 673 mmHg 36%
    22:00 +17°C° 0 mm 3 mps 673 mmHg 37%
    23:00 +16°C° 0 mm 3 mps 673 mmHg 38%

    2 March, Monday

    Time Temperature Precipitation Wind Pressure Humidity
    00:00 +16°C° 0 mm 3 mps 673 mmHg 40%
    01:00 +14°C° 0 mm 3 mps 672 mmHg 41%
    02:00 +14°C° 0 mm 3 mps 672 mmHg 42%
    03:00 +13°C° 0 mm 3 mps 672 mmHg 43%
    04:00 +13°C° 0 mm 3 mps 671 mmHg 44%
    05:00 +13°C° 0 mm 3 mps 672 mmHg 44%
    06:00 +13°C° 0 mm 3 mps 672 mmHg 43%
    07:00 +13°C° 0 mm 3 mps 672 mmHg 43%
    08:00 +16°C° 0 mm 3 mps 673 mmHg 39%
    09:00 +18°C° 0 mm 3 mps 674 mmHg 34%
    10:00 +19°C° 0 mm 3 mps 674 mmHg 29%
    11:00 +21°C° 0 mm 3 mps 674 mmHg 27%
    12:00 +22°C° 0 mm 4 mps 674 mmHg 26%
    13:00 +23°C° 0 mm 4 mps 673 mmHg 24%
    14:00 +23°C° 0 mm 4 mps 673 mmHg 24%
    15:00 +23°C° 0 mm 4 mps 673 mmHg 23%
    16:00 +23°C° 0 mm 4 mps 672 mmHg 23%
    17:00 +22°C° 0 mm 3 mps 672 mmHg 27%
    18:00 +21°C° 0 mm 3 mps 672 mmHg 31%
    19:00 +20°C° 0 mm 2 mps 672 mmHg 35%
    20:00 +19°C° 0 mm 2 mps 672 mmHg 37%
    21:00 +18°C° 0 mm 2 mps 672 mmHg 38%
    22:00 +18°C° 0 mm 2 mps 672 mmHg 40%
    23:00 +17°C° 0 mm 2 mps 672 mmHg 41%

    3 March, Tuesday

    Time Temperature Precipitation Wind Pressure Humidity
    00:00 +17°C° 0 mm 2 mps 672 mmHg 41%
    01:00 +16°C° 0 mm 2 mps 672 mmHg 42%
    02:00 +16°C° 0 mm 2 mps 671 mmHg 43%
    03:00 +16°C° 0 mm 2 mps 671 mmHg 44%
    04:00 +15°C° 0 mm 2 mps 671 mmHg 45%
    05:00 +15°C° 0 mm 2 mps 671 mmHg 45%
    06:00 +15°C° 0 mm 2 mps 672 mmHg 45%
    07:00 +15°C° 0 mm 2 mps 672 mmHg 46%
    08:00 +17°C° 0 mm 2 mps 673 mmHg 41%
    09:00 +19°C° 0 mm 3 mps 673 mmHg 36%
    10:00 +20°C° 0 mm 3 mps 674 mmHg 32%
    11:00 +21°C° 0 mm 3 mps 674 mmHg 29%
    12:00 +23°C° 0 mm 2 mps 673 mmHg 27%
    13:00 +24°C° 0 mm 2 mps 673 mmHg 25%
    14:00 +24°C° 0 mm 3 mps 673 mmHg 23%
    15:00 +24°C° 0 mm 3 mps 672 mmHg 22%
    16:00 +25°C° 0 mm 3 mps 672 mmHg 21%
    17:00 +22°C° 0 mm 3 mps 672 mmHg 25%
    18:00 +21°C° 0 mm 3 mps 672 mmHg 28%
    19:00 +20°C° 0 mm 3 mps 672 mmHg 31%
    20:00 +19°C° 0 mm 3 mps 672 mmHg 32%
    21:00 +18°C° 0 mm 3 mps 672 mmHg 32%
    22:00 +17°C° 0 mm 3 mps 672 mmHg 32%
    23:00 +17°C° 0 mm 3 mps 672 mmHg 31%
    Show more